Regional Weather Roundup
Issued by NWS New Orleans/Baton Rouge, LA

Home | Current Version | Previous Version | Text Only | Print | Product List | Glossary On
Versions: 1 2 3 4 5 6 7 8 9 10 11 12 13 14 15 16 17 18 19 20 21 22 23 24 25 26 27 28 29 30 31 32 33 34 35 36 37 38 39 40 41 42 43 44 45 46 47 48 49 50
000
ASUS44 KLIX 242013
RWRLIX
NEW ORLEANS REGIONAL WEATHER ROUNDUP
NATIONAL WEATHER SERVICE NEW ORLEANS LA
200 PM CST TUE JAN 24 2017

NOTE: "FAIR" INDICATES FEW OR NO CLOUDS BELOW 12,000 FEET WITH NO
      SIGNIFICANT WEATHER AND/OR OBSTRUCTIONS TO VISIBILITY.
      SKY/WX - SKY CONDITION AND SIGNIFICANT WEATHER.
      TMP - AIR TEMPERATURE.     DP    - DEWPOINT TEMPERATURE.
      RH  - RELATIVE HUMIDITY.   PRES  - PRESSURE.
      HI  - HEAT INDEX.          WCI   - WIND CHILL INDEX.

*  THESE STATIONS ARE NOT NWS OR FAA STATIONS AND ARE NOT UNDER
   NWS QUALITY CONTROL.

LAZ038-040-048-061>063-065>067-069-242100-
SOUTHEAST LOUISIANA

CITY           SKY/WX    TMP DP  RH WIND       PRES   REMARKS
N.O. AUDUBON   NOT AVBL
N.O. INTL ARPT MOSUNNY   68  46  45 S12       29.91F
N.O. LAKEFRONT SUNNY     68  49  50 SE9       29.92F
N.O. DOWNTOWN*   N/A     68  48  48 S10       29.92F
RESERVE*         N/A     72  48  42 S7        29.91S
SLIDELL        SUNNY     65  44  46 VRB3      29.92F
BATON ROUGE    SUNNY     71  42  35 SW15      29.89F
BOOTHVILLE     SUNNY     65  50  58 S7        29.92F
BELLE CHASSE   MOSUNNY   67  52  58 SE9       29.91F
BOGALUSA*        N/A     70  40  33 S7        29.92S
GALLIANO*      CLEAR     67  51  54 S6        29.91F
NEW ROADS*       N/A     71  43  36 S8        29.89S
GONZALES*        N/A     72  43  35 SW7       29.89F
HAMMOND*       SUNNY     70  41  35 SE7       29.91S
HOUMA*         SUNNY     70  46  43 SE9       29.91
PORT FOURCHON* CLEAR     66  54  63 SE10      29.91F

$$

MSZ070-080>082-242100-
SOUTHERN MISSISSIPPI

CITY           SKY/WX    TMP DP  RH WIND       PRES   REMARKS
MCCOMB         SUNNY     69  36  29 SW7       29.88F
GULFPORT       SUNNY     62  46  55 S6        29.91F
BILOXI         SUNNY     60  47  60 S7        29.91F
PASCAGOULA     SUNNY     65  44  46 S7        29.91F
STENNIS ARPT*  SUNNY     64  39  39 S7        29.92F

$$

COASTAL OBSERVATIONS
LAKE AND NEARSHORE STATIONS

STATION/POSITION TIME  TEMP    WIND        PRES    WAVE
                       AIR SEA DIR/SP/G            HT/PER
                 (UTC) (F)     (DEG/KT/KT) (MB)    (FT/S)
PASCAGOULA       1942   59     200/  5/  8 1012.7
WAVELAND YACHT   1942   57 61  170/  8/ 10 1013.3
GRAND ISLE       1942   64 67  150/  7/ 10 1013.1
SOUTHWEST PASS   1942          160/  6/  7   N/A
NEW CANAL        1942   67 63  200/  5/  7 1011.9
SHELL BEACH      1942   63 64  150/ 10/ 11 1013.1

OFFSHORE STATIONS

STATION/POSITION TIME  TEMP    WIND        PRES    WAVE
                       AIR SEA DIR/SP/G            HT/PER
                 (UTC) (F)     (DEG/KT/KT) (MB)    (FT/S)

$$




USA.gov is the U.S. government's official web portal to all federal, state and local government web resources and services.